Location: Kelshall
(52.0000°N, 0.0500°W)
Time: 21:26:08
(UTC+00:00)

ATLAS 2AS CENTAUR R/B - Pass Details

Date: 26 January 2021
Orbit: 947 x 1265 km, 63.7° (Epoch: 13 February)

Event Time Altitude Azimuth Distance (km) Brightness Sun altitude
Rises 22:59:02 0° 315° (NW) 4,138 6.3 -53.5°
Reaches altitude 10° 23:01:55 10° 312° (NW) 3,133 5.5 -53.7°
Enters shadow 23:02:29 12° 311° (NW) 2,938 5.3 -53.7°
